Location: Prairie View Elementary School
(39.8322°N, 99.5698°W)
Time: 00:04:17
(UTC+00:00)

Shenzhou-11 Module - Pass Details

Date: 08 December 2019
Orbit: 303 x 315 km, 42.8° (Epoch: 17 January)

Event Time Altitude Azimuth Distance (km) Brightness Sun altitude
Rises 00:07:31 0° 272° (W) 2,062 7.1 -10.2°
Reaches altitude 10° 00:09:34 10° 279° (W) 1,228 5.6 -10.6°
Maximum altitude 00:12:13 44° 354° (N) 456 2.3 -11.1°
Enters shadow 00:13:44 21° 58° (ENE) 797 3.0 -11.4°
